Regional Weather Roundup
Issued by NWS Huntsville, AL

Home | Current Version | Previous Version | Text Only | Print | Product List | Glossary On
Versions: 1 2 3 4 5 6 7 8 9 10 11 12 13 14 15 16 17 18 19 20 21 22 23 24 25 26 27
000
ASUS44 KHUN 102010
RWRHUN

WEATHER ROUNDUP FOR THE TENNESSEE VALLEY
NATIONAL WEATHER SERVICE HUNTSVILLE AL
200 PM CST SAT DEC 10 2016

ALZ001>004-102100-
NORTHWEST ALABAMA

CITY           SKY/WX    TMP DP  RH WIND       PRES   REMARKS
COURTLAND HCN    N/A     41 N/A N/A N5          N/A
RUSSELLVILLE     N/A     43 N/A N/A MISG        N/A
SHOALS AIRPORT SUNNY     42  15  33 CALM      30.48F
SHOALS TVA RES   N/A     41 N/A N/A MISG        N/A
$$

ALZ005>007-016-102100-
NORTH CENTRAL ALABAMA

CITY           SKY/WX    TMP DP  RH WIND       PRES   REMARKS
CULLMAN AG STN   N/A     45 N/A N/A NE5         N/A
DECATUR AP     SUNNY     44  17  33 N3        30.47F
HUNTSVILLE AP  MOSUNNY   45  18  34 N3        30.46F
MERIDIANVILLE  SUNNY     43   9  24 N6        30.46S
REDSTONE ARSN  SUNNY     43  14  30 VRB7      30.45F
VINEMONT AP    FAIR      43  12  28 N7        30.46S
$$

ALZ008>010-102100-
NORTHEAST ALABAMA

CITY           SKY/WX    TMP DP  RH WIND       PRES   REMARKS
ALBERTVILLE    SUNNY     43  25  49 N6        30.42S
FORT PAYNE     SUNNY     45   5  19 N6        30.42F
SCOTTSBORO AP  SUNNY     43   7  22 NE6       30.46F
SCOTTSBORO HCN   N/A     43 N/A N/A MISG        N/A
VALLEY HEAD      N/A     43 N/A N/A MISG        N/A
$$

TNZ076-096-097-102100-
SOUTHEASTERN MIDDLE TENNESSEE

CITY           SKY/WX    TMP DP  RH WIND       PRES   REMARKS
TULLAHOMA      SUNNY     37   9  30 CALM      30.45F
WINCHESTER     SUNNY     39  14  35 N6        30.45F WCI  35
$$

...SURROUNDING SITES...

CITY           SKY/WX    TMP DP  RH WIND       PRES   REMARKS
ATLANTA        MOSUNNY   48  12  23 VRB5      30.41F
ANNISTON       SUNNY     49   8  19 W5        30.43F
BIRMINGHAM     SUNNY     48  13  24 E7        30.45F
CHATTANOOGA    MOSUNNY   43  13  29 N6        30.46F
CORINTH        FAIR      45  14  29 VRB6      30.45F
DALTON         SUNNY     43  16  33 N9        30.44F
GADSDEN        SUNNY     46  16  30 CALM      30.45F
GOLDEN TRNGL   SUNNY     48  14  25 CALM      30.43F
HALEYVILLE     FAIR      45  16  31 VRB3      30.46F
JACKSON TN     SUNNY     42  14  32 NE3       30.47F
MEMPHIS        MOSUNNY   46  15  28 CALM      30.45F
NASHVILLE      MOSUNNY   40  12  32 VRB3      30.49F
OXFORD MS      FAIR      46  10  23 CALM      30.46F
ROME           SUNNY     47   9  21 NE7       30.43F
SAVANNAH       SUNNY     45  14  29 CALM      30.46F
TUPELO         SUNNY     47  14  26 CALM      30.46F
TUSCALOOSA     SUNNY     49  13  23 VRB6      30.45F
$$

...GULF COAST WEATHER...

CITY           SKY/WX    TMP DP  RH WIND       PRES   REMARKS
GULFPORT       SUNNY     55  20  25 VRB7      30.41F
PASCAGOULA     SUNNY     55  15  20 N10       30.43F
MOBILE         SUNNY     53  14  21 N8        30.43F
GULF SHORES    CLEAR     54  19  24 N9G16     30.41S
PENSACOLA      SUNNY     56  14  19 N9        30.39F
DESTIN         SUNNY     58  18  21 NE8       30.39F
PANAMA CITY    SUNNY     58  22  25 N12       30.38F
APPALACHICOLA  SUNNY     61  20  20 NE13      30.36F
$$





USA.gov is the U.S. government's official web portal to all federal, state and local government web resources and services.